IRIDIUM 8 [+] 1 24792U 97020A 12034.32268447 .00000063 00000-0 15523-4 0 7692 2 24792 86.3919 58.2778 0002441 83.1391 277.0081 14.34214705772142 IRIDIUM 7 [+] 1 24793U 97020B 12034.17683432 .00000159 00000-0 49842-4 0 7698 2 24793 86.3928 58.5161 0002348 89.2317 270.9144 14.34211254772129 IRIDIUM 6 [+] 1 24794U 97020C 12034.17046336 .00000079 00000-0 21025-4 0 5664 2 24794 86.3919 58.4917 0002201 87.2871 272.8586 14.34211933772124 IRIDIUM 5 [+] 1 24795U 97020D 12034.44318779 .00000035 00000-0 53931-5 0 9420 2 24795 86.3912 58.4993 0002513 118.2430 241.9026 14.34213321772246 IRIDIUM 4 [+] 1 24796U 97020E 12034.11972507 .00000028 00000-0 28478-5 0 7956 2 24796 86.3914 58.2365 0002386 81.4008 278.7455 14.34214200772139 IRIDIUM 914 [-] 1 24836U 97030A 12034.55447923 .00000238 00000-0 72556-4 0 3515 2 24836 86.3912 80.0879 0004154 68.5620 291.6023 14.37715621767131 IRIDIUM 12 [+] 1 24837U 97030B 12034.45932052 .00000179 00000-0 56777-4 0 7949 2 24837 86.3936 89.6919 0002384 86.8139 273.3337 14.34218476765911 IRIDIUM 10 [+] 1 24839U 97030D 12034.23733264 .00000229 00000-0 74609-4 0 7974 2 24839 86.3938 89.7759 0002396 85.8721 274.2750 14.34218364765899 IRIDIUM 13 [+] 1 24840U 97030E 12034.46567625 .00000216 00000-0 70234-4 0 7445 2 24840 86.3944 89.7783 0002318 87.9375 272.2098 14.34216085765911 IRIDIUM 16 [-] 1 24841U 97030F 12034.56987303 .00000202 00000-0 63291-4 0 7806 2 24841 86.4020 90.4006 0001848 139.1851 220.9494 14.35573026766183 IRIDIUM 911 [-] 1 24842U 97030G 12034.55816441 .00000266 00000-0 72571-4 0 4381 2 24842 86.4456 92.2255 0016705 109.8030 250.4978 14.43547878769952 IRIDIUM 15 [+] 1 24869U 97034A 12034.31684062 .00000262 00000-0 86336-4 0 8294 2 24869 86.3972 121.4406 0002428 91.7931 268.3535 14.34221909762866 IRIDIUM 17 [-] 1 24870U 97034B 12034.54529332 .00000169 00000-0 52687-4 0 7768 2 24870 86.3996 121.0563 0002482 77.1337 283.0136 14.34711501762944 IRIDIUM 920 [-] 1 24871U 97034C 12034.28495132 .00000178 00000-0 51879-4 0 3926 2 24871 86.3987 112.0406 0010287 315.0767 44.9595 14.38361136764364 IRIDIUM 18 [+] 1 24872U 97034D 12034.27878557 .00000327 00000-0 10984-3 0 7686 2 24872 86.3984 121.6327 0002137 89.6241 270.5203 14.34222199762852 IRIDIUM 921 [-] 1 24873U 97034E 12034.57085781 .00001314 00000-0 10539-3 0 8357 2 24873 86.3827 265.4919 0007754 334.1589 25.9254 14.99198447793105 IRIDIUM 26 [-] 1 24903U 97043A 12034.39833513 .00000195 00000-0 62558-4 0 8934 2 24903 86.3968 355.0699 0002396 80.9262 279.2209 14.34318637756812 IRIDIUM 25 [+] 1 24904U 97043B 12034.29678118 -.00001260 00000-0 -45721-3 0 7962 2 24904 86.3966 355.0487 0002420 78.7538 281.3885 14.34214330756768 IRIDIUM 46 [+] 1 24905U 97043C 12034.30946578 -.00000998 00000-0 -36348-3 0 8034 2 24905 86.3967 355.4133 0002472 76.9009 283.2387 14.34216256756770 IRIDIUM 23 [S] 1 24906U 97043D 12034.42363186 -.00001320 00000-0 -47839-3 0 8101 2 24906 86.3969 354.9154 0002309 85.6366 274.4920 14.34214669756795 IRIDIUM 22 [+] 1 24907U 97043E 12034.41729158 -.00001952 00000-0 -70448-3 0 7760 2 24907 86.3972 355.4379 0002275 81.5070 278.6324 14.34210418756796 DUMMY MASS 1 [-] 1 24925U 97048A 12034.07543090 .00000230 00000-0 24225-4 0 847 2 24925 86.3344 226.7875 0008710 114.1425 246.0709 14.84079124780624 DUMMY MASS 2 [-] 1 24926U 97048B 12034.08330798 .00000225 00000-0 23814-4 0 755 2 24926 86.3340 227.5811 0009289 120.1549 240.0595 14.83857816780512 IRIDIUM 29 [+] 1 24944U 97051A 12034.35732026 .00000068 00000-0 17049-4 0 7338 2 24944 86.3924 26.6437 0002439 82.0289 278.1185 14.34217696753350 IRIDIUM 32 [+] 1 24945U 97051B 12034.44613180 .00000122 00000-0 36500-4 0 7613 2 24945 86.3935 26.6277 0002424 80.1291 280.0196 14.34217677753387 IRIDIUM 33 [-] 1 24946U 97051C 12034.53250736 .00000202 00000-0 67048-4 0 8642 2 24946 86.3844 26.7627 0009274 133.4311 226.7657 14.32709203753223 IRIDIUM 28 [-] 1 24948U 97051E 12034.53304102 .00000247 00000-0 80579-4 0 6170 2 24948 86.3931 26.6750 0002243 89.2654 270.8798 14.34544567753380 IRIDIUM 30 [+] 1 24949U 97051F 12034.43978864 .00000093 00000-0 26018-4 0 8081 2 24949 86.3931 26.6967 0002317 79.3837 280.7632 14.34217580753363 IRIDIUM 31 [+] 1 24950U 97051G 12034.43344648 .00000133 00000-0 40407-4 0 7510 2 24950 86.3929 26.7006 0002350 79.6175 280.5293 14.34217705753373 IRIDIUM 19 [+] 1 24965U 97056A 12034.13875549 .00000037 00000-0 60272-5 0 7489 2 24965 86.3906 58.3413 0002407 83.6707 276.4766 14.34213932751472 IRIDIUM 35 [+] 1 24966U 97056B 12034.43051290 .00000094 00000-0 26674-4 0 8012 2 24966 86.3921 58.2355 0002380 87.2239 272.9231 14.34214539751498 IRIDIUM 36 [-] 1 24967U 97056C 12034.58647836 .00000268 00000-0 87896-4 0 7381 2 24967 86.3930 58.2236 0002599 84.9320 275.2173 14.34562515751675 IRIDIUM 37 [+] 1 24968U 97056D 12034.33536951 .00000082 00000-0 22110-4 0 7584 2 24968 86.3910 58.4034 0002456 84.9821 275.1659 14.34214954751488 IRIDIUM 34 [+] 1 24969U 97056E 12034.14509446 .00000006 00000-0 -49011-5 0 7423 2 24969 86.3936 58.4244 0002362 84.3607 275.7863 14.34214239751458 IRIDIUM 43 [+] 1 25039U 97069A 12034.48176121 -.00001205 00000-0 -43742-3 0 7474 2 25039 86.3975 121.5546 0002868 93.9098 266.2352 14.34211372745285 IRIDIUM 41 [+] 1 25040U 97069B 12034.26609480 -.00000259 00000-0 -99499-4 0 7436 2 25040 86.3983 121.5501 0002015 94.6127 265.5199 14.34217513745253 IRIDIUM 40 [+] 1 25041U 97069C 12034.29147278 .00000339 00000-0 11405-3 0 7765 2 25041 86.3978 121.4953 0002357 90.8391 269.3098 14.34222080745275 IRIDIUM 39 [+] 1 25042U 97069D 12034.29781290 -.00001824 00000-0 -65888-3 0 7489 2 25042 86.3990 121.7541 0001710 87.5446 272.5988 14.34207955745258 IRIDIUM 38 [-] 1 25043U 97069E 12034.54603132 .00000195 00000-0 61729-4 0 7632 2 25043 86.3998 120.4178 0001597 112.7968 247.3396 14.34974773745456 IRIDIUM 42 [+] 1 25077U 97077A 12034.28513017 .00000309 00000-0 10309-3 0 7534 2 25077 86.3983 121.5931 0002358 90.6892 269.4585 14.34221955741113 IRIDIUM 44 [-] 1 25078U 97077B 12034.57836137 .00000321 00000-0 10186-3 0 2372 2 25078 86.4004 115.3956 0001267 113.2942 246.8388 14.36896325741967 IRIDIUM 45 [+] 1 25104U 97082A 12034.30312289 -.00001016 00000-0 -36976-3 0 7112 2 25104 86.3964 355.0435 0002531 80.9865 279.1540 14.34215863739310 IRIDIUM 24 [-] 1 25105U 97082B 12034.40054911 .00000409 00000-0 12714-3 0 2920 2 25105 86.3924 342.5908 0011108 325.9598 34.0885 14.38615544740820 IRIDIUM 47 [+] 1 25106U 97082C 12034.31580886 -.00001294 00000-0 -46928-3 0 6918 2 25106 86.3959 354.9750 0002018 61.6672 298.4669 14.34211909739319 IRIDIUM 49 [+] 1 25108U 97082E 12034.39826172 -.00001336 00000-0 -48432-3 0 7133 2 25108 86.3961 354.9899 0002245 77.6977 282.4309 14.34214748739335 IRIDIUM 52 [+] 1 25169U 98010A 12034.21828747 .00000324 00000-0 10851-3 0 4846 2 25169 86.3946 89.9953 0002395 85.1647 274.9811 14.34219989730714 IRIDIUM 56 [+] 1 25170U 98010B 12034.21196153 .00000295 00000-0 98378-4 0 6005 2 25170 86.3938 90.0667 0002414 88.0417 272.1037 14.34218626730695 IRIDIUM 54 [+] 1 25171U 98010C 12034.52275086 .00000195 00000-0 62620-4 0 7172 2 25171 86.3947 89.8782 0002366 85.8905 274.2569 14.34218149730900 IRIDIUM 50 [+] 1 25172U 98010D 12034.41492570 .00000218 00000-0 70790-4 0 7443 2 25172 86.3954 89.8908 0002374 89.0934 271.0531 14.34218187730722 IRIDIUM 53 [+] 1 25173U 98010E 12034.22464724 .00000211 00000-0 68141-4 0 7252 2 25173 86.3934 89.9772 0002428 88.8942 271.2515 14.34218158730707 IRIDIUM 51 [S] 1 25262U 98018A 12034.48044042 .00000059 00000-0 11517-4 0 8519 2 25262 86.4463 58.4949 0002337 86.7494 273.3959 14.42946945729994 IRIDIUM 61 [+] 1 25263U 98018B 12034.13241085 .00000041 00000-0 74060-5 0 6767 2 25263 86.3932 58.4600 0002319 85.7912 274.3551 14.34214225725785 IRIDIUM 55 [+] 1 25272U 98019A 12034.27487630 .00000061 00000-0 14641-4 0 6840 2 25272 86.3928 26.6217 0002433 82.4996 277.6479 14.34217746725005 IRIDIUM 57 [+] 1 25273U 98019B 12034.45879835 .00000092 00000-0 25755-4 0 7273 2 25273 86.3929 26.7646 0002387 79.4319 280.7154 14.34218456725034 IRIDIUM 58 [+] 1 25274U 98019C 12034.39538879 .00000110 00000-0 32204-4 0 5396 2 25274 86.3932 26.9311 0002364 78.4322 281.7146 14.34217741725025 IRIDIUM 59 [+] 1 25275U 98019D 12034.54125462 .00000090 00000-0 25117-4 0 3350 2 25275 86.3929 26.8297 0002605 64.6874 295.4591 14.34218411725044 IRIDIUM 60 [+] 1 25276U 98019E 12034.33831027 .00000089 00000-0 24801-4 0 7619 2 25276 86.3933 26.6109 0002411 84.9040 275.2429 14.34217160725018 IRIDIUM 62 [+] 1 25285U 98021A 12034.36949677 .00000335 00000-0 11259-3 0 7353 2 25285 86.3986 323.4853 0002289 78.7414 281.4043 14.34215232723971 IRIDIUM 63 [+] 1 25286U 98021B 12034.30608198 -.00000704 00000-0 -25859-3 0 7531 2 25286 86.3999 323.6201 0002573 71.7286 288.4266 14.34208380723960 IRIDIUM 64 [+] 1 25287U 98021C 12034.31239146 .00000285 00000-0 94686-4 0 6835 2 25287 86.3976 323.5342 0002337 78.1628 281.9842 14.34212889723945 IRIDIUM 65 [+] 1 25288U 98021D 12034.31875406 .00000326 00000-0 10919-3 0 7294 2 25288 86.3979 323.4715 0002004 76.8988 283.2441 14.34215362723968 IRIDIUM 66 [+] 1 25289U 98021E 12034.32508886 .00000339 00000-0 11403-3 0 6754 2 25289 86.3978 323.3884 0002264 74.0696 286.0764 14.34214577723964 IRIDIUM 67 [+] 1 25290U 98021F 12034.33143739 .00000367 00000-0 12408-3 0 5092 2 25290 86.3973 323.4918 0002329 75.3604 284.7878 14.34215958723971 IRIDIUM 68 [+] 1 25291U 98021G 12034.33778351 .00000355 00000-0 11969-3 0 7211 2 25291 86.3981 323.5715 0002344 72.4390 287.7071 14.34215308723948 IRIDIUM 69 [-] 1 25319U 98026A 12034.52352416 .00000383 00000-0 12170-3 0 5324 2 25319 86.3990 349.7608 0001093 98.2773 261.8546 14.37431532721255 IRIDIUM 71 [-] 1 25320U 98026B 12034.38850450 .00000330 00000-0 10281-3 0 2343 2 25320 86.3974 346.6927 0002362 15.2519 344.8748 14.37975614721571 IRIDIUM 70 [+] 1 25342U 98032A 12034.36315168 .00000366 00000-0 12359-3 0 7537 2 25342 86.3981 323.7108 0002235 70.3033 289.8406 14.34215677718053 IRIDIUM 72 [+] 1 25343U 98032B 12034.35046637 .00000418 00000-0 14237-3 0 7354 2 25343 86.3978 323.4563 0002266 75.0105 285.1341 14.34215924718050 IRIDIUM 73 [-] 1 25344U 98032C 12034.30953173 .00000377 00000-0 97153-4 0 6208 2 25344 86.4447 310.6947 0002959 77.7642 282.3891 14.47511684723737 IRIDIUM 74 [S] 1 25345U 98032D 12034.43136354 -.00004970 00000-0 -14955-2 0 7648 2 25345 86.4497 323.6509 0002289 87.1535 272.9995 14.42933940720008 IRIDIUM 75 [+] 1 25346U 98032E 12034.42657971 .00000341 00000-0 11473-3 0 7617 2 25346 86.3979 323.6073 0002357 76.9893 283.1580 14.34215341718637 IRIDIUM 3 [+] 1 25431U 98048A 12034.41094569 -.00001391 00000-0 -50387-3 0 6889 2 25431 86.3979 355.1901 0001723 70.1500 289.9734 14.34214106704570 IRIDIUM 76 [+] 1 25432U 98048B 12034.36020274 -.00001123 00000-0 -40829-3 0 6272 2 25432 86.3971 355.0282 0002657 63.6111 296.5096 14.34215475704559 IRIDIUM 82 [+] 1 25467U 98051A 12034.46906629 -.00000922 00000-0 -33624-3 0 8590 2 25467 86.4007 121.5877 0002368 106.9674 253.1844 14.34206717705581 IRIDIUM 81 [+] 1 25468U 98051B 12034.32319100 .00000309 00000-0 10330-3 0 6761 2 25468 86.3973 121.3930 0002401 94.1360 266.0113 14.34221625701784 IRIDIUM 80 [+] 1 25469U 98051C 12034.30416236 .00000393 00000-0 13314-3 0 6845 2 25469 86.3983 121.5888 0002330 90.7804 269.3652 14.34222644701782 IRIDIUM 77 [+] 1 25471U 98051E 12034.31049369 .00000041 00000-0 75219-5 0 8507 2 25471 86.3977 121.3603 0001689 69.7420 290.3891 14.34220822706989 IRIDIUM 2 [-] 1 25527U 98066A 12034.59513166 .00002388 00000-0 18629-3 0 2023 2 25527 85.5633 92.6153 0010334 8.4049 351.7353 15.00642881722222 IRIDIUM 86 [+] 1 25528U 98066B 12034.33881231 .00000234 00000-0 76480-4 0 9123 2 25528 86.3928 89.5672 0001634 86.6333 273.5069 14.34218438698317 IRIDIUM 84 [+] 1 25530U 98066D 12034.23098572 .00000194 00000-0 62056-4 0 5689 2 25530 86.3926 89.7413 0002439 89.4326 270.7135 14.34218683695930 IRIDIUM 83 [+] 1 25531U 98066E 12034.40223721 .00000241 00000-0 79074-4 0 7004 2 25531 86.3949 89.7189 0002382 90.8396 269.3071 14.34218692693319 IRIDIUM 20 [+] 1 25577U 98074A 12034.32215089 -.00001140 00000-0 -41431-3 0 6074 2 25577 86.3967 354.9943 0002349 77.8445 282.2883 14.34215575687389 IRIDIUM 11 [+] 1 25578U 98074B 12034.40460293 -.00001327 00000-0 -48112-3 0 8435 2 25578 86.3960 355.1800 0002083 85.0139 275.1067 14.34214637696365 IRIDIUM 14 [S] 1 25777U 99032A 12034.30950583 .00000621 00000-0 13949-3 0 8205 2 25777 86.5158 323.5475 0002335 80.9797 279.1691 14.54940252671673 IRIDIUM 21 [+] 1 25778U 99032B 12034.34412524 .00000315 00000-0 10527-3 0 6744 2 25778 86.3977 323.5434 0004027 55.4888 304.6688 14.34215649667065 IRIDIUM 91 [+] 1 27372U 02005A 12034.31294091 .00000090 00000-0 25156-4 0 2824 2 27372 86.3946 27.0918 0004302 136.8024 223.3513 14.34217130530574 IRIDIUM 90 [S] 1 27373U 02005B 12034.20847183 -.00003650 00000-0 -10993-2 0 2513 2 27373 86.4447 89.6889 0006953 61.4959 298.6855 14.42934777528570 IRIDIUM 94 [S] 1 27374U 02005C 12034.43647253 -.00002862 00000-0 -52473-3 0 4049 2 27374 85.9389 17.1241 0008800 111.8861 248.3348 14.66231946534012 IRIDIUM 95 [+] 1 27375U 02005D 12034.42075675 .00000086 00000-0 23468-4 0 2407 2 27375 86.3941 26.8415 0002397 77.8433 282.3044 14.34217638529879 IRIDIUM 96 [S] 1 27376U 02005E 12034.30656586 .00000393 00000-0 67096-4 0 3925 2 27376 86.5747 26.5077 0002698 80.1076 280.0446 14.66241724533998 IRIDIUM 97 [+] 1 27450U 02031A 12034.15778397 .00000025 00000-0 19941-5 0 1517 2 27450 86.3909 58.5809 0004382 127.5384 232.6216 14.34214140509153 IRIDIUM 98 [S] 1 27451U 02031B 12034.30319997 .00000081 00000-0 18257-4 0 2131 2 27451 86.4520 122.0484 0005257 132.0923 228.0645 14.42958752509442